This is the latest recevied weather packets stored in our database for station/object KJ4EWA. If no packets are shown the sender has not sent any weather packets the latest 1 day(s).
| Time | Temp. | Humidity | Pressure | Rain* | Wind** | Luminosity | Snow |
|---|---|---|---|---|---|---|---|
| 1778089311 | 26.67° C | 91% | 1018.7 hPa | 0 mm | - | 116 W/m² | - |
| 1778089009 | 26.67° C | 89% | 1018.7 hPa | 0 mm | - | 157 W/m² | - |
| 1778088099 | 26.11° C | 92% | 1019.3 hPa | 0 mm | - | 180 W/m² | - |
| 1778086581 | 26.11° C | 93% | 1019.4 hPa | 0 mm | - | 287 W/m² | - |
| 1778080904 | 25° C | 95% | 1019 hPa | 0 mm | - | 171 W/m² | - |
| 1778080603 | 25° C | 97% | 1019 hPa | 0 mm | - | 275 W/m² | - |
| 1778079996 | 24.44° C | 96% | 1018.9 hPa | 0 mm | - | 120 W/m² | - |
| 1778079693 | 24.44° C | 96% | 1018.7 hPa | 0 mm | - | 108 W/m² | - |
| 1778079390 | 24.44° C | 96% | 1018.9 hPa | 0 mm | - | 60 W/m² | - |
| 1778077876 | 24.44° C | 96% | 1018.8 hPa | 0 mm | - | 66 W/m² | - |
| 1778076969 | 24.44° C | 96% | 1018.5 hPa | 0 mm | - | 79 W/m² | - |
| 1778076062 | 24.44° C | 95% | 1018.5 hPa | 0 mm | - | 92 W/m² | - |
| 1778073939 | 24.44° C | 95% | 1018.4 hPa | 0 mm | - | 120 W/m² | - |
| 1778073636 | 24.44° C | 96% | 1018.2 hPa | 0 mm | - | 153 W/m² | - |
| 1778073333 | 24.44° C | 97% | 1018.2 hPa | 0 mm | - | 104 W/m² | - |
| 1778072424 | 23.89° C | 99% | 1017.9 hPa | 0 mm | - | 99 W/m² | - |
| 1778072122 | 23.33° C | 99% | 1017.8 hPa | 0 mm | - | 73 W/m² | - |
| 1778071517 | 22.78° C | 99% | 1017.7 hPa | 0 mm | - | 76 W/m² | - |
| 1778071215 | 22.78° C | 99% | 1017.8 hPa | 0 mm | - | 75 W/m² | - |
| 1778070307 | 22.22° C | 99% | 1017.9 hPa | 0 mm | - | 56 W/m² | - |
| 1778069096 | 21.11° C | 99% | 1017.2 hPa | 0 mm | - | 42 W/m² | - |
| 1778068491 | 20° C | 99% | 1017.3 hPa | 0 mm | - | 32 W/m² | - |
| 1778067585 | 20° C | 99% | 1016.8 hPa | 0 mm | - | 16 W/m² | - |
| 1778065162 | 20° C | 99% | 1016.2 hPa | 0 mm | - | 0 W/m² | - |
| 1778064556 | 20.56° C | 99% | 1015.7 hPa | 0 mm | - | 0 W/m² | - |
* Rain latest hour (hover to see other rain measurements)
** Current wind speed in m/s (hover to see current wind gust speed)